ZL1TQN Weather Reports


Display with metric or nautical units.
time (UTC)temp
F
wind
direction
speed
MPH
gust
MPH
rain 1hr
in
rain 24hr
in
rain mn
in
humidity
%
barometer
mb
20260906003005 59 257 6.0 12.0 0.00 0.00 0.00 71 1014.7
20260906002506 60 304 4.0 12.0 0.00 0.00 0.00 71 1014.7
20260906002006 60 310 4.0 12.0 0.00 0.00 0.00 76 1014.9
20260906001507 60 306 6.0 12.0 0.00 0.00 0.00 77 1015.0
20260906001006 59 327 3.0 12.0 0.00 0.00 0.00 78 1015.0
20260906000005 60 339 5.0 12.0 0.00 0.00 0.00 75 1015.2
20260905235005 60 298 3.0 10.0 0.00 0.00 0.00 69 1015.2
20260905234006 60 290 4.0 13.0 0.00 0.00 0.00 69 1015.6
20260905233505 60 279 5.0 13.0 0.00 0.00 0.00 68 1015.7
20260905233006 60 274 4.0 13.0 0.00 0.00 0.00 69 1015.7
20260905232506 60 300 7.0 12.0 0.00 0.00 0.00 68 1015.9
20260905231505 60 265 4.0 10.0 0.00 0.00 0.00 74 1016.2
20260905231005 60 295 2.0 8.0 0.00 0.00 0.00 77 1016.2
20260905230007 59 355 3.0 7.0 0.00 0.00 0.00 78 1016.4
20260905225006 58 321 5.0 10.0 0.00 0.00 0.00 79 1016.6
20260905224507 58 312 4.0 9.0 0.00 0.00 0.00 77 1016.7
20260905224006 59 332 3.0 7.0 0.00 0.00 0.00 78 1016.7
20260905223505 58 301 5.0 8.0 0.00 0.00 0.00 78 1016.7
20260905223005 58 290 3.0 10.0 0.00 0.00 0.00 77 1016.7
20260905222505 58 279 5.0 10.0 0.00 0.00 0.00 78 1016.8
20260905222005 58 288 2.0 12.0 0.00 0.00 0.00 79 1016.8
20260905221505 57 276 3.0 12.0 0.00 0.00 0.00 79 1016.8
20260905221006 57 284 3.0 9.0 0.00 0.00 0.00 78 1017.0
20260905220005 57 291 4.0 10.0 0.00 0.00 0.00 78 1017.2
20260905215505 58 279 3.0 7.0 0.00 0.00 0.00 78 1017.2
20260905215006 57 291 2.0 9.0 0.00 0.00 0.00 79 1017.2
20260905214505 57 329 3.0 9.0 0.00 0.00 0.00 79 1017.3
20260905214006 57 301 3.0 5.0 0.00 0.00 0.00 78 1017.3
20260905213506 57 0 2.0 9.0 0.00 0.00 0.00 78 1017.4
20260905213006 57 295 2.0 9.0 0.00 0.00 0.00 79 1017.5
20260905212006 57 267 3.0 8.0 0.00 0.00 0.00 79 1017.5
20260905211506 57 296 4.0 10.0 0.00 0.00 0.00 79 1017.5
20260905210006 56 278 2.0 12.0 0.00 0.00 0.00 82 1017.4
20260905205506 56 312 5.0 12.0 0.00 0.00 0.00 81 1017.4
20260905205005 55 301 3.0 5.0 0.00 0.00 0.00 83 1017.4
20260905204505 55 280 2.0 5.0 0.00 0.00 0.00 83 1017.5
20260905204006 55 303 2.0 5.0 0.00 0.00 0.00 83 1017.6
20260905203506 54 281 2.0 7.0 0.00 0.00 0.00 84 1017.5
20260905203006 54 285 3.0 7.0 0.00 0.00 0.00 83 1017.5
20260905202505 54 295 2.0 6.0 0.00 0.00 0.00 84 1017.5
20260905202005 53 281 2.0 5.0 0.00 0.00 0.00 85 1017.5
20260905201505 53 279 3.0 5.0 0.00 0.00 0.00 85 1017.4
20260905200005 52 313 2.0 3.0 0.00 0.00 0.00 85 1017.4
20260905195506 52 302 0.0 2.0 0.00 0.00 0.00 85 1017.4
20260905195005 52 303 1.0 3.0 0.00 0.00 0.00 86 1017.4
20260905194506 51 276 1.0 5.0 0.00 0.00 0.00 85 1017.3
20260905194006 51 308 2.0 5.0 0.00 0.00 0.00 85 1017.2
20260905193005 51 286 1.0 3.0 0.00 0.00 0.00 86 1017.2
20260905192505 51 274 2.0 5.0 0.00 0.00 0.00 85 1017.2
20260905192006 51 265 2.0 6.0 0.00 0.00 0.00 86 1017.2
20260905191505 51 278 3.0 6.0 0.00 0.00 0.00 86 1017.1
20260905191005 51 266 4.0 6.0 0.00 0.00 0.00 86 1017.0
20260905190005 49 252 3.0 5.0 0.00 0.00 0.00 90 1017.0
20260905185505 48 256 3.0 3.0 0.00 0.00 0.00 91 1017.2
20260905185006 47 259 2.0 3.0 0.00 0.00 0.00 90 1017.2
20260905184506 47 202 1.0 2.0 0.00 0.00 0.00 90 1017.2
20260905184006 47 304 1.0 2.0 0.00 0.00 0.00 89 1017.1
20260905183506 47 304 1.0 2.0 0.00 0.00 0.00 88 1016.9
20260905183006 47 0 1.0 2.0 0.00 0.00 0.00 88 1016.8
20260905182506 48 29 1.0 3.0 0.00 0.00 0.00 87 1016.8
20260905182005 48 74 1.0 3.0 0.00 0.00 0.00 86 1016.8
20260905181506 49 74 2.0 5.0 0.00 0.00 0.00 84 1016.8
20260905180006 50 165 2.0 6.0 0.00 0.00 0.00 87 1016.6
20260905175505 50 169 2.0 5.0 0.00 0.00 0.00 87 1016.5
20260905174005 48 229 3.0 7.0 0.00 0.00 0.00 91 1016.2
20260905173505 47 222 2.0 5.0 0.00 0.00 0.00 91 1016.3
20260905173006 46 169 2.0 3.0 0.00 0.00 0.00 89 1016.5
20260905172005 47 144 1.0 3.0 0.00 0.00 0.00 88 1016.7
20260905171506 47 154 2.0 3.0 0.00 0.00 0.00 88 1016.7
20260905171006 48 165 1.0 3.0 0.00 0.00 0.00 87 1016.7
20260905170005 49 311 0.0 2.0 0.00 0.00 0.00 86 1016.6
20260905165505 49 317 1.0 2.0 0.00 0.00 0.00 86 1016.7
20260905164505 50 310 1.0 3.0 0.00 0.00 0.00 86 1016.7
20260905164005 50 184 1.0 3.0 0.00 0.00 0.00 86 1016.8
20260905163505 50 183 1.0 3.0 0.00 0.00 0.00 86 1016.9
20260905162505 49 250 1.0 3.0 0.00 0.00 0.00 87 1016.7
20260905162006 49 172 1.0 3.0 0.00 0.00 0.00 87 1016.7
20260905161005 49 180 1.0 2.0 0.00 0.00 0.00 86 1016.7
20260905160005 49 223 1.0 3.0 0.00 0.00 0.00 86 1016.7
20260905155505 49 156 1.0 3.0 0.00 0.00 0.00 86 1016.7
20260905155005 49 171 2.0 3.0 0.00 0.00 0.00 87 1016.8
20260905154505 49 221 1.0 3.0 0.00 0.00 0.00 86 1016.8
20260905154005 49 194 1.0 3.0 0.00 0.00 0.00 87 1016.7
20260905153505 49 170 1.0 3.0 0.00 0.00 0.00 87 1016.7
20260905153006 49 186 1.0 3.0 0.00 0.00 0.00 87 1016.7
20260905152505 49 173 1.0 3.0 0.00 0.00 0.00 87 1016.7
20260905151505 49 210 2.0 3.0 0.00 0.00 0.00 86 1016.7
20260905150005 49 232 1.0 3.0 0.00 0.00 0.00 85 1016.6
20260905145005 50 267 4.0 9.0 0.00 0.00 0.00 85 1016.6
20260905144505 50 272 4.0 10.0 0.00 0.00 0.00 85 1016.6
20260905144005 50 252 4.0 10.0 0.00 0.00 0.00 85 1016.6
20260905143505 49 252 3.0 6.0 0.00 0.00 0.00 85 1016.8
20260905143005 49 268 4.0 6.0 0.00 0.00 0.00 85 1016.9
20260905142505 49 257 3.0 6.0 0.00 0.00 0.00 85 1017.0
20260905142005 49 210 3.0 8.0 0.00 0.00 0.00 85 1017.1
20260905141505 49 257 3.0 9.0 0.00 0.00 0.00 85 1017.2
20260905141007 49 245 4.0 9.0 0.00 0.00 0.00 86 1017.3
20260905140005 48 250 3.0 6.0 0.00 0.00 0.00 86 1017.5
20260905135505 48 274 1.0 3.0 0.00 0.00 0.00 86 1017.6
20260905135005 48 261 2.0 3.0 0.00 0.00 0.00 86 1017.7
20260905134505 48 261 2.0 3.0 0.00 0.00 0.00 86 1017.7
20260905134005 48 261 2.0 3.0 0.00 0.00 0.00 86 1017.8
20260905133505 48 238 2.0 3.0 0.00 0.00 0.00 86 1017.8
20260905133005 48 260 2.0 3.0 0.00 0.00 0.00 86 1017.9
20260905132505 48 270 1.0 3.0 0.00 0.00 0.00 86 1017.9
20260905132005 48 283 0.0 7.0 0.00 0.00 0.00 86 1018.0
20260905131505 48 254 2.0 7.0 0.00 0.00 0.00 87 1018.2
20260905131005 47 219 2.0 5.0 0.00 0.00 0.00 88 1018.2
20260905130005 46 194 2.0 5.0 0.00 0.00 0.00 89 1018.1
20260905125506 45 187 2.0 5.0 0.00 0.00 0.00 91 1018.1
20260905125005 44 208 2.0 3.0 0.00 0.00 0.00 89 1018.2
20260905124505 45 183 1.0 3.0 0.00 0.00 0.00 89 1018.2
20260905124005 45 173 0.0 3.0 0.00 0.00 0.00 89 1018.3
20260905123005 44 159 1.0 3.0 0.00 0.00 0.00 87 1018.4
20260905122505 45 159 2.0 3.0 0.00 0.00 0.00 86 1018.3
20260905122004 46 173 1.0 2.0 0.00 0.00 0.00 87 1018.3
20260905121505 46 173 1.0 2.0 0.00 0.00 0.00 88 1018.3
20260905121005 46 174 1.0 3.0 0.00 0.00 0.00 88 1018.4
20260905120005 45 187 1.0 2.0 0.00 0.00 0.00 89 1018.3
20260905115505 45 173 1.0 2.0 0.00 0.00 0.00 89 1018.3
20260905115004 45 112 1.0 3.0 0.00 0.00 0.00 87 1018.4
20260905114507 45 112 2.0 3.0 0.00 0.00 0.00 87 1018.6
20260905113005 46 310 1.0 2.0 0.00 0.00 0.00 88 1018.3
20260905112504 46 326 1.0 2.0 0.00 0.00 0.00 88 1018.1
20260905112005 46 283 0.0 0.0 0.00 0.00 0.00 87 1018.0
20260905111005 46 157 0.0 0.0 0.00 0.00 0.00 86 1018.3
20260905110004 46 157 0.0 0.0 0.00 0.00 0.00 87 1018.3
20260905105504 46 157 0.0 1.0 0.00 0.00 0.00 86 1018.3
20260905104505 47 156 1.0 2.0 0.00 0.00 0.00 85 1018.3
20260905104004 47 157 1.0 2.0 0.00 0.00 0.00 85 1018.4
20260905103505 47 157 1.0 2.0 0.00 0.00 0.00 87 1018.4
20260905102505 48 157 1.0 3.0 0.00 0.00 0.00 83 1018.6
20260905101505 49 327 1.0 2.0 0.00 0.00 0.00 82 1018.3
20260905101005 49 303 1.0 3.0 0.00 0.00 0.00 82 1018.5
20260905100005 49 271 1.0 3.0 0.00 0.00 0.00 81 1018.4
20260905095505 50 305 2.0 5.0 0.00 0.00 0.00 81 1018.4
20260905095005 50 293 1.0 5.0 0.00 0.00 0.00 80 1018.5
20260905094004 50 315 1.0 5.0 0.00 0.00 0.00 79 1018.6
20260905093505 50 286 2.0 5.0 0.00 0.00 0.00 80 1018.6
20260905092505 50 285 1.0 5.0 0.00 0.00 0.00 79 1018.3
20260905092005 50 285 2.0 5.0 0.00 0.00 0.00 79 1018.2
20260905091505 51 293 2.0 3.0 0.00 0.00 0.00 78 1018.3
20260905091006 51 296 1.0 3.0 0.00 0.00 0.00 77 1018.5
20260905090005 52 320 1.0 3.0 0.00 0.00 0.00 76 1018.6
20260905085504 52 280 1.0 3.0 0.00 0.00 0.00 75 1018.5
20260905085004 52 291 1.0 6.0 0.00 0.00 0.00 75 1018.4
20260905084504 52 272 2.0 6.0 0.00 0.00 0.00 74 1018.3
20260905084004 53 276 3.0 9.0 0.00 0.00 0.00 74 1018.2
20260905083504 53 255 4.0 12.0 0.00 0.00 0.00 73 1018.0
20260905083004 53 261 5.0 12.0 0.00 0.00 0.00 73 1017.9
20260905082507 54 262 7.0 12.0 0.00 0.00 0.00 72 1017.8
20260905082006 54 250 6.0 9.0 0.00 0.00 0.00 72 1017.8
20260905081006 54 256 4.0 7.0 0.00 0.00 0.00 71 1017.8
20260905075507 54 271 5.0 9.0 0.00 0.00 0.00 70 1017.7
20260905075006 54 265 5.0 6.0 0.00 0.00 0.00 71 1017.6
20260905074506 54 274 1.0 7.0 0.00 0.00 0.00 70 1017.4
20260905073507 54 269 2.0 6.0 0.00 0.00 0.00 71 1017.2
20260905073006 54 263 3.0 6.0 0.00 0.00 0.00 71 1017.2
20260905072506 54 264 2.0 3.0 0.00 0.00 0.00 71 1017.2
20260905071507 55 200 2.0 5.0 0.00 0.00 0.00 70 1017.2
20260905071006 55 257 2.0 6.0 0.00 0.00 0.00 71 1017.2
20260905070007 54 294 1.0 3.0 0.00 0.00 0.00 71 1017.2
20260905065506 54 277 2.0 6.0 0.00 0.00 0.00 71 1017.0
20260905064506 55 272 3.0 6.0 0.00 0.00 0.00 71 1017.2
20260905064006 55 274 2.0 3.0 0.00 0.00 0.00 70 1017.2
20260905063506 55 276 1.0 3.0 0.00 0.00 0.00 69 1017.3
20260905063006 56 288 2.0 3.0 0.00 0.00 0.00 69 1017.3
20260905062506 56 270 2.0 3.0 0.00 0.00 0.00 68 1017.3
20260905062006 56 263 2.0 5.0 0.00 0.00 0.00 68 1017.2
20260905061506 57 256 2.0 7.0 0.00 0.00 0.00 67 1017.2
20260905060006 58 274 2.0 9.0 0.00 0.00 0.00 65 1017.0
20260905055006 58 272 3.0 10.0 0.00 0.00 0.00 63 1016.7
20260905054506 58 276 5.0 10.0 0.00 0.00 0.00 62 1016.7
20260905054006 59 271 5.0 13.0 0.00 0.00 0.00 61 1016.7
20260905053506 59 254 7.0 13.0 0.00 0.00 0.00 60 1016.7
20260905053006 59 273 7.0 17.0 0.00 0.00 0.00 59 1016.7
20260905052506 60 257 6.0 17.0 0.00 0.00 0.00 59 1016.7
20260905052006 60 242 9.0 17.0 0.00 0.00 0.00 57 1016.7
20260905051006 61 247 3.0 10.0 0.00 0.00 0.00 60 1016.7
20260905050007 62 222 3.0 7.0 0.00 0.00 0.00 61 1016.7
20260905045506 62 248 3.0 7.0 0.00 0.00 0.00 62 1016.7
20260905045006 62 200 2.0 16.0 0.00 0.00 0.00 62 1016.6
20260905044506 62 263 5.0 16.0 0.00 0.00 0.00 61 1016.5
20260905043506 62 265 5.0 12.0 0.00 0.00 0.00 60 1016.2
20260905043006 62 243 6.0 14.0 0.00 0.00 0.00 61 1016.1
20260905042506 62 257 7.0 20.0 0.00 0.00 0.00 62 1016.1
20260905042006 61 258 10.0 20.0 0.00 0.00 0.00 61 1016.1
20260905041506 61 247 10.0 20.0 0.00 0.00 0.00 60 1016.2
20260905041006 62 255 14.0 20.0 0.00 0.00 0.00 58 1016.2
20260905035506 63 255 6.0 13.0 0.00 0.00 0.00 57 1016.5
20260905035006 63 230 8.0 15.0 0.00 0.00 0.00 57 1016.5
20260905034506 63 238 6.0 15.0 0.00 0.00 0.00 58 1016.5
20260905033506 63 249 7.0 15.0 0.00 0.00 0.00 57 1016.5
20260905032506 63 256 10.0 20.0 0.00 0.00 0.00 56 1016.6
20260905032006 63 263 10.0 16.0 0.00 0.00 0.00 56 1016.7
20260905031506 64 245 7.0 17.0 0.00 0.00 0.00 56 1016.7
20260905030006 64 250 13.0 18.0 0.00 0.00 0.00 55 1016.5
20260905025505 64 259 7.0 14.0 0.00 0.00 0.00 56 1016.4
20260905025005 64 254 8.0 17.0 0.00 0.00 0.00 55 1016.3
20260905024505 64 215 6.0 17.0 0.00 0.00 0.00 57 1016.2
20260905024006 64 251 4.0 17.0 0.00 0.00 0.00 59 1016.3
20260905023506 63 258 10.0 17.0 0.00 0.00 0.00 59 1016.4
20260905023006 63 242 10.0 16.0 0.00 0.00 0.00 59 1016.5
20260905022506 63 228 7.0 14.0 0.00 0.00 0.00 60 1016.5
20260905022006 63 220 7.0 16.0 0.00 0.00 0.00 61 1016.5
20260905021506 63 253 6.0 16.0 0.00 0.00 0.00 62 1016.6
20260905021006 63 245 9.0 16.0 0.00 0.00 0.00 58 1016.5
20260905020006 63 248 8.0 21.0 0.00 0.00 0.00 59 1016.7
20260905015006 63 259 3.0 20.0 0.00 0.00 0.00 59 1016.7
20260905014506 63 253 10.0 20.0 0.00 0.00 0.00 57 1016.8
20260905014006 63 262 7.0 18.0 0.00 0.00 0.00 57 1016.9
20260905013505 63 250 8.0 20.0 0.00 0.00 0.00 58 1017.0
20260905013006 63 250 11.0 22.0 0.00 0.00 0.00 58 1016.9
20260905012506 63 252 9.0 22.0 0.00 0.00 0.00 59 1016.9
20260905012006 63 260 9.0 16.0 0.00 0.00 0.00 60 1017.0
20260905011506 63 271 8.0 16.0 0.00 0.00 0.00 62 1017.1
20260905011006 63 255 9.0 16.0 0.00 0.00 0.00 62 1017.2
20260905010006 62 245 5.0 17.0 0.00 0.00 0.00 62 1017.2
20260905005506 62 232 8.0 17.0 0.00 0.00 0.00 61 1017.2
20260905005005 62 188 5.0 17.0 0.00 0.00 0.00 61 1017.2
20260905004506 62 241 6.0 17.0 0.00 0.00 0.00 62 1017.2